owner,sensor,date,latitude,longitude,vertical_datum,mass_concentration_of_oxygen_in_sea_water,qcFlag 
DISL,ioos:station:DISL:CATA:1,2009-11-01T00:00:00Z,30.3085,-88.1395,2.737,8.39,1111122 
DISL,ioos:station:DISL:CATA:1,2009-11-01T00:30:00Z,30.3085,-88.1395,2.756,8.6,1111122 
DISL,ioos:station:DISL:CATA:1,2009-11-01T01:00:00Z,30.3085,-88.1395,2.775,8.16,1111122 
DISL,ioos:station:DISL:CATA:1,2009-11-01T01:30:00Z,30.3085,-88.1395,2.79,8.44,1111122 
DISL,ioos:station:DISL:CATA:1,2009-11-01T02:00:00Z,30.3085,-88.1395,2.793,8.17,1111122 
DISL,ioos:station:DISL:CATA:1,2009-11-01T02:30:00Z,30.3085,-88.1395,2.792,8.61,1111122 
DISL,ioos:station:DISL:CATA:1,2009-11-01T03:00:00Z,30.3085,-88.1395,2.79,7.85,1111122 
DISL,ioos:station:DISL:CATA:1,2009-11-01T03:30:00Z,30.3085,-88.1395,2.769,6.86,1111122 
DISL,ioos:station:DISL:CATA:1,2009-11-01T04:00:00Z,30.3085,-88.1395,2.768,6.44,1111122 
DISL,ioos:station:DISL:CATA:1,2009-11-01T04:30:00Z,30.3085,-88.1395,2.746,5.76,1111122 
DISL,ioos:station:DISL:CATA:1,2009-11-01T05:00:00Z,30.3085,-88.1395,2.723,5.54,1111122 
DISL,ioos:station:DISL:CATA:1,2009-11-01T05:30:00Z,30.3085,-88.1395,2.693,6.47,1111122 
DISL,ioos:station:DISL:CATA:1,2009-11-01T06:00:00Z,30.3085,-88.1395,2.667,7.72,1111122 
DISL,ioos:station:DISL:CATA:1,2009-11-01T06:30:00Z,30.3085,-88.1395,2.637,8.13,1111122 
DISL,ioos:station:DISL:CATA:1,2009-11-01T07:00:00Z,30.3085,-88.1395,2.602,8.17,1111122 
DISL,ioos:station:DISL:CATA:1,2009-11-01T07:30:00Z,30.3085,-88.1395,2.57,7.99,1111122 
DISL,ioos:station:DISL:CATA:1,2009-11-01T08:00:00Z,30.3085,-88.1395,2.531,7.41,1111122 
DISL,ioos:station:DISL:CATA:1,2009-11-01T08:30:00Z,30.3085,-88.1395,2.489,7.24,1111122 
DISL,ioos:station:DISL:CATA:1,2009-11-01T09:00:00Z,30.3085,-88.1395,2.455,7.19,1111122 
DISL,ioos:station:DISL:CATA:1,2009-11-01T09:30:00Z,30.3085,-88.1395,2.436,7.5,1111122 
DISL,ioos:station:DISL:CATA:1,2009-11-01T10:00:00Z,30.3085,-88.1395,2.414,7.55,1111122 
DISL,ioos:station:DISL:CATA:1,2009-11-01T10:30:00Z,30.3085,-88.1395,2.404,7.49,1111122 
DISL,ioos:station:DISL:CATA:1,2009-11-01T11:00:00Z,30.3085,-88.1395,2.396,7.48,1111122 
DISL,ioos:station:DISL:CATA:1,2009-11-01T11:30:00Z,30.3085,-88.1395,2.386,7.5,1111122 
DISL,ioos:station:DISL:CATA:1,2009-11-01T12:00:00Z,30.3085,-88.1395,2.392,7.37,1111122 
DISL,ioos:station:DISL:CATA:1,2009-11-01T12:30:00Z,30.3085,-88.1395,2.408,7.22,1111122 
DISL,ioos:station:DISL:CATA:1,2009-11-01T13:00:00Z,30.3085,-88.1395,2.417,7.07,1111122 
DISL,ioos:station:DISL:CATA:1,2009-11-01T13:30:00Z,30.3085,-88.1395,2.434,7.06,1111122 
DISL,ioos:station:DISL:CATA:1,2009-11-01T14:00:00Z,30.3085,-88.1395,2.449,6.95,1111122 
DISL,ioos:station:DISL:CATA:1,2009-11-01T14:30:00Z,30.3085,-88.1395,2.463,7.31,1111122 
DISL,ioos:station:DISL:CATA:1,2009-11-01T15:00:00Z,30.3085,-88.1395,2.471,7.18,1111122 
DISL,ioos:station:DISL:CATA:1,2009-11-01T15:30:00Z,30.3085,-88.1395,2.49,7.5,1111122 
DISL,ioos:station:DISL:CATA:1,2009-11-01T16:00:00Z,30.3085,-88.1395,2.504,7.9,1111122 
DISL,ioos:station:DISL:CATA:1,2009-11-01T16:30:00Z,30.3085,-88.1395,2.517,8.28,1111122 
DISL,ioos:station:DISL:CATA:1,2009-11-01T17:00:00Z,30.3085,-88.1395,2.528,8.31,1111122 
DISL,ioos:station:DISL:CATA:1,2009-11-01T17:30:00Z,30.3085,-88.1395,2.546,8.85,1111122 
DISL,ioos:station:DISL:CATA:1,2009-11-01T18:00:00Z,30.3085,-88.1395,2.564,8.98,1111122 
DISL,ioos:station:DISL:CATA:1,2009-11-01T18:30:00Z,30.3085,-88.1395,2.575,9.17,1111122 
DISL,ioos:station:DISL:CATA:1,2009-11-01T19:00:00Z,30.3085,-88.1395,2.587,8.87,1111122 
DISL,ioos:station:DISL:CATA:1,2009-11-01T19:30:00Z,30.3085,-88.1395,2.602,8.85,1111122 
DISL,ioos:station:DISL:CATA:1,2009-11-01T20:00:00Z,30.3085,-88.1395,2.621,9.04,1111122 
DISL,ioos:station:DISL:CATA:1,2009-11-01T20:30:00Z,30.3085,-88.1395,2.642,9.5,1111122 
DISL,ioos:station:DISL:CATA:1,2009-11-01T21:00:00Z,30.3085,-88.1395,2.648,10.23,1111122 
DISL,ioos:station:DISL:CATA:1,2009-11-01T21:30:00Z,30.3085,-88.1395,2.663,10.26,1111122 
DISL,ioos:station:DISL:CATA:1,2009-11-01T22:00:00Z,30.3085,-88.1395,2.671,10.32,1111122 
DISL,ioos:station:DISL:CATA:1,2009-11-01T22:30:00Z,30.3085,-88.1395,2.685,9.96,1111122 
DISL,ioos:station:DISL:CATA:1,2009-11-01T23:00:00Z,30.3085,-88.1395,2.708,10.18,1111122 
DISL,ioos:station:DISL:CATA:1,2009-11-01T23:30:00Z,30.3085,-88.1395,2.729,10.0,1111122 
DISL,ioos:station:DISL:CATA:1,2009-11-02T00:00:00Z,30.3085,-88.1395,2.748,9.6,1111122 
DISL,ioos:station:DISL:CATA:1,2009-11-02T00:30:00Z,30.3085,-88.1395,2.77,9.21,1111122 
DISL,ioos:station:DISL:CATA:1,2009-11-02T01:00:00Z,30.3085,-88.1395,2.784,9.48,1111122 
DISL,ioos:station:DISL:CATA:1,2009-11-02T01:30:00Z,30.3085,-88.1395,2.789,9.46,1111122 
DISL,ioos:station:DISL:CATA:1,2009-11-02T02:00:00Z,30.3085,-88.1395,2.792,9.46,1111122 
DISL,ioos:station:DISL:CATA:1,2009-11-02T02:30:00Z,30.3085,-88.1395,2.802,9.43,1111122 
DISL,ioos:station:DISL:CATA:1,2009-11-02T03:00:00Z,30.3085,-88.1395,2.807,9.17,1111122 
DISL,ioos:station:DISL:CATA:1,2009-11-02T03:30:00Z,30.3085,-88.1395,2.793,8.75,1111122 
DISL,ioos:station:DISL:CATA:1,2009-11-02T04:00:00Z,30.3085,-88.1395,2.776,8.43,1111122 
DISL,ioos:station:DISL:CATA:1,2009-11-02T04:30:00Z,30.3085,-88.1395,2.751,8.42,1111122 
DISL,ioos:station:DISL:CATA:1,2009-11-02T05:00:00Z,30.3085,-88.1395,2.725,8.63,1111122 
DISL,ioos:station:DISL:CATA:1,2009-11-02T05:30:00Z,30.3085,-88.1395,2.698,8.68,1111122 
DISL,ioos:station:DISL:CATA:1,2009-11-02T06:00:00Z,30.3085,-88.1395,2.662,8.93,1111122 
DISL,ioos:station:DISL:CATA:1,2009-11-02T06:30:00Z,30.3085,-88.1395,2.627,9.02,1111122 
DISL,ioos:station:DISL:CATA:1,2009-11-02T07:00:00Z,30.3085,-88.1395,2.597,9.12,1111122 
DISL,ioos:station:DISL:CATA:1,2009-11-02T07:30:00Z,30.3085,-88.1395,2.553,9.01,1111122 
DISL,ioos:station:DISL:CATA:1,2009-11-02T08:00:00Z,30.3085,-88.1395,2.508,8.73,1111122 
DISL,ioos:station:DISL:CATA:1,2009-11-02T08:30:00Z,30.3085,-88.1395,2.474,8.63,1111122 
DISL,ioos:station:DISL:CATA:1,2009-11-02T09:00:00Z,30.3085,-88.1395,2.442,8.64,1111122 
DISL,ioos:station:DISL:CATA:1,2009-11-02T09:30:00Z,30.3085,-88.1395,2.409,8.58,1111122 
DISL,ioos:station:DISL:CATA:1,2009-11-02T10:00:00Z,30.3085,-88.1395,2.393,8.66,1111122 
DISL,ioos:station:DISL:CATA:1,2009-11-02T10:30:00Z,30.3085,-88.1395,2.371,8.58,1111122 
DISL,ioos:station:DISL:CATA:1,2009-11-02T11:00:00Z,30.3085,-88.1395,2.362,8.5,1111122 
DISL,ioos:station:DISL:CATA:1,2009-11-02T11:30:00Z,30.3085,-88.1395,2.359,8.45,1111122 
DISL,ioos:station:DISL:CATA:1,2009-11-02T12:00:00Z,30.3085,-88.1395,2.369,8.5,1111122 
DISL,ioos:station:DISL:CATA:1,2009-11-02T12:30:00Z,30.3085,-88.1395,2.381,8.48,1111122 
DISL,ioos:station:DISL:CATA:1,2009-11-02T13:00:00Z,30.3085,-88.1395,2.393,8.33,1111122 
DISL,ioos:station:DISL:CATA:1,2009-11-02T13:30:00Z,30.3085,-88.1395,2.408,8.34,1111122 
DISL,ioos:station:DISL:CATA:1,2009-11-02T14:00:00Z,30.3085,-88.1395,2.414,8.34,1111122 
DISL,ioos:station:DISL:CATA:1,2009-11-02T14:30:00Z,30.3085,-88.1395,2.414,8.36,1111122 
DISL,ioos:station:DISL:CATA:1,2009-11-02T15:00:00Z,30.3085,-88.1395,2.436,8.39,1111122 
DISL,ioos:station:DISL:CATA:1,2009-11-02T15:30:00Z,30.3085,-88.1395,2.453,8.39,1111122 
DISL,ioos:station:DISL:CATA:1,2009-11-02T16:00:00Z,30.3085,-88.1395,2.475,8.38,1111122 
DISL,ioos:station:DISL:CATA:1,2009-11-02T16:30:00Z,30.3085,-88.1395,2.49,8.89,1111122 
DISL,ioos:station:DISL:CATA:1,2009-11-02T17:00:00Z,30.3085,-88.1395,2.514,9.66,1111122 
DISL,ioos:station:DISL:CATA:1,2009-11-02T17:30:00Z,30.3085,-88.1395,2.533,10.59,1111122 
DISL,ioos:station:DISL:CATA:1,2009-11-02T18:00:00Z,30.3085,-88.1395,2.553,11.05,1111122 
DISL,ioos:station:DISL:CATA:1,2009-11-02T18:30:00Z,30.3085,-88.1395,2.586,11.33,1111122 
DISL,ioos:station:DISL:CATA:1,2009-11-02T19:00:00Z,30.3085,-88.1395,2.603,11.45,1111122 
DISL,ioos:station:DISL:CATA:1,2009-11-02T19:30:00Z,30.3085,-88.1395,2.631,11.64,1111122 
DISL,ioos:station:DISL:CATA:1,2009-11-02T20:00:00Z,30.3085,-88.1395,2.656,11.47,1111122 
DISL,ioos:station:DISL:CATA:1,2009-11-02T20:30:00Z,30.3085,-88.1395,2.67,11.29,1111122 
DISL,ioos:station:DISL:CATA:1,2009-11-02T21:00:00Z,30.3085,-88.1395,2.706,11.29,1111122 
DISL,ioos:station:DISL:CATA:1,2009-11-02T21:30:00Z,30.3085,-88.1395,2.731,11.51,1111122 
DISL,ioos:station:DISL:CATA:1,2009-11-02T22:00:00Z,30.3085,-88.1395,2.755,11.71,1111122 
DISL,ioos:station:DISL:CATA:1,2009-11-02T22:30:00Z,30.3085,-88.1395,2.778,11.52,1111122 
DISL,ioos:station:DISL:CATA:1,2009-11-02T23:00:00Z,30.3085,-88.1395,2.812,11.12,1111122 
DISL,ioos:station:DISL:CATA:1,2009-11-02T23:30:00Z,30.3085,-88.1395,2.835,10.56,1111122 
DISL,ioos:station:DISL:CATA:1,2009-11-03T00:00:00Z,30.3085,-88.1395,2.858,10.61,1111122 
DISL,ioos:station:DISL:CATA:1,2009-11-03T00:30:00Z,30.3085,-88.1395,2.876,10.51,1111122 
DISL,ioos:station:DISL:CATA:1,2009-11-03T01:00:00Z,30.3085,-88.1395,2.89,9.12,1111122 
DISL,ioos:station:DISL:CATA:1,2009-11-03T01:30:00Z,30.3085,-88.1395,2.912,8.43,1111122 
DISL,ioos:station:DISL:CATA:1,2009-11-03T02:00:00Z,30.3085,-88.1395,2.92,8.03,1111122 
DISL,ioos:station:DISL:CATA:1,2009-11-03T02:30:00Z,30.3085,-88.1395,2.932,7.16,1111122 
DISL,ioos:station:DISL:CATA:1,2009-11-03T03:00:00Z,30.3085,-88.1395,2.915,6.77,1111122 
DISL,ioos:station:DISL:CATA:1,2009-11-03T03:30:00Z,30.3085,-88.1395,2.913,6.01,1111122 
DISL,ioos:station:DISL:CATA:1,2009-11-03T04:00:00Z,30.3085,-88.1395,2.898,5.46,1111122 
DISL,ioos:station:DISL:CATA:1,2009-11-03T04:30:00Z,30.3085,-88.1395,2.876,5.2,1111122 
DISL,ioos:station:DISL:CATA:1,2009-11-03T05:00:00Z,30.3085,-88.1395,2.842,5.11,1111122 
DISL,ioos:station:DISL:CATA:1,2009-11-03T05:30:00Z,30.3085,-88.1395,2.814,5.66,1111122 
DISL,ioos:station:DISL:CATA:1,2009-11-03T06:00:00Z,30.3085,-88.1395,2.805,8.98,1111122 
DISL,ioos:station:DISL:CATA:1,2009-11-03T06:30:00Z,30.3085,-88.1395,2.781,9.81,1111122 
DISL,ioos:station:DISL:CATA:1,2009-11-03T07:00:00Z,30.3085,-88.1395,2.735,9.72,1111122 
DISL,ioos:station:DISL:CATA:1,2009-11-03T07:30:00Z,30.3085,-88.1395,2.69,9.67,1111122 
DISL,ioos:station:DISL:CATA:1,2009-11-03T08:00:00Z,30.3085,-88.1395,2.641,9.54,1111122 
DISL,ioos:station:DISL:CATA:1,2009-11-03T08:30:00Z,30.3085,-88.1395,2.599,9.46,1111122 
DISL,ioos:station:DISL:CATA:1,2009-11-03T09:00:00Z,30.3085,-88.1395,2.535,9.46,1111122 
DISL,ioos:station:DISL:CATA:1,2009-11-03T09:30:00Z,30.3085,-88.1395,2.5,9.18,1111122 
DISL,ioos:station:DISL:CATA:1,2009-11-03T10:00:00Z,30.3085,-88.1395,2.456,9.22,1111122 
DISL,ioos:station:DISL:CATA:1,2009-11-03T10:30:00Z,30.3085,-88.1395,2.423,9.16,1111122 
DISL,ioos:station:DISL:CATA:1,2009-11-03T11:00:00Z,30.3085,-88.1395,2.389,8.99,1111122 
DISL,ioos:station:DISL:CATA:1,2009-11-03T11:30:00Z,30.3085,-88.1395,2.378,8.92,1111122 
DISL,ioos:station:DISL:CATA:1,2009-11-03T12:00:00Z,30.3085,-88.1395,2.369,8.84,1111122 
DISL,ioos:station:DISL:CATA:1,2009-11-03T12:30:00Z,30.3085,-88.1395,2.358,8.76,1111122 
DISL,ioos:station:DISL:CATA:1,2009-11-03T13:00:00Z,30.3085,-88.1395,2.359,8.82,1111122 
DISL,ioos:station:DISL:CATA:1,2009-11-03T13:30:00Z,30.3085,-88.1395,2.374,8.9,1111122 
DISL,ioos:station:DISL:CATA:1,2009-11-03T14:00:00Z,30.3085,-88.1395,2.39,9.0,1111122 
DISL,ioos:station:DISL:CATA:1,2009-11-03T14:30:00Z,30.3085,-88.1395,2.396,9.08,1111122 
DISL,ioos:station:DISL:CATA:1,2009-11-03T15:00:00Z,30.3085,-88.1395,2.391,9.17,1111122 
DISL,ioos:station:DISL:CATA:1,2009-11-03T15:30:00Z,30.3085,-88.1395,2.412,9.25,1111122 
DISL,ioos:station:DISL:CATA:1,2009-11-03T16:00:00Z,30.3085,-88.1395,2.437,9.31,1111122 
DISL,ioos:station:DISL:CATA:1,2009-11-03T16:30:00Z,30.3085,-88.1395,2.441,9.33,1111122 
DISL,ioos:station:DISL:CATA:1,2009-11-03T17:00:00Z,30.3085,-88.1395,2.438,9.21,1111122 
DISL,ioos:station:DISL:CATA:1,2009-11-03T17:30:00Z,30.3085,-88.1395,2.446,9.7,1111122 
DISL,ioos:station:DISL:CATA:1,2009-11-03T18:00:00Z,30.3085,-88.1395,2.459,10.42,1111122 
DISL,ioos:station:DISL:CATA:1,2009-11-03T18:30:00Z,30.3085,-88.1395,2.479,10.86,1111122 
DISL,ioos:station:DISL:CATA:1,2009-11-03T19:00:00Z,30.3085,-88.1395,2.497,11.08,1111122 
DISL,ioos:station:DISL:CATA:1,2009-11-03T19:30:00Z,30.3085,-88.1395,2.525,11.21,1111122 
DISL,ioos:station:DISL:CATA:1,2009-11-03T20:00:00Z,30.3085,-88.1395,2.565,11.22,1111122 
DISL,ioos:station:DISL:CATA:1,2009-11-03T20:30:00Z,30.3085,-88.1395,2.598,11.29,1111122 
DISL,ioos:station:DISL:CATA:1,2009-11-03T21:00:00Z,30.3085,-88.1395,2.625,11.14,1111122 
DISL,ioos:station:DISL:CATA:1,2009-11-03T21:30:00Z,30.3085,-88.1395,2.655,11.19,1111122 
DISL,ioos:station:DISL:CATA:1,2009-11-03T22:00:00Z,30.3085,-88.1395,2.693,11.1,1111122 
DISL,ioos:station:DISL:CATA:1,2009-11-03T22:30:00Z,30.3085,-88.1395,2.734,10.82,1111122 
DISL,ioos:station:DISL:CATA:1,2009-11-03T23:00:00Z,30.3085,-88.1395,2.762,10.82,1111122 
DISL,ioos:station:DISL:CATA:1,2009-11-03T23:30:00Z,30.3085,-88.1395,2.795,10.59,1111122 
DISL,ioos:station:DISL:CATA:1,2009-11-04T00:00:00Z,30.3085,-88.1395,2.81,10.1,1111122 
DISL,ioos:station:DISL:CATA:1,2009-11-04T00:30:00Z,30.3085,-88.1395,2.854,9.66,1111122 
DISL,ioos:station:DISL:CATA:1,2009-11-04T01:00:00Z,30.3085,-88.1395,2.89,8.76,1111122 
DISL,ioos:station:DISL:CATA:1,2009-11-04T01:30:00Z,30.3085,-88.1395,2.909,7.55,1111122 
DISL,ioos:station:DISL:CATA:1,2009-11-04T02:00:00Z,30.3085,-88.1395,2.927,7.0,1111122 
DISL,ioos:station:DISL:CATA:1,2009-11-04T02:30:00Z,30.3085,-88.1395,2.943,6.68,1111122 
DISL,ioos:station:DISL:CATA:1,2009-11-04T03:00:00Z,30.3085,-88.1395,2.952,6.54,1111122 
DISL,ioos:station:DISL:CATA:1,2009-11-04T03:30:00Z,30.3085,-88.1395,2.956,6.4,1111122 
DISL,ioos:station:DISL:CATA:1,2009-11-04T04:00:00Z,30.3085,-88.1395,2.955,6.19,1111122 
DISL,ioos:station:DISL:CATA:1,2009-11-04T04:30:00Z,30.3085,-88.1395,2.949,6.13,1111122 
DISL,ioos:station:DISL:CATA:1,2009-11-04T05:00:00Z,30.3085,-88.1395,2.937,6.21,1111122 
DISL,ioos:station:DISL:CATA:1,2009-11-04T05:30:00Z,30.3085,-88.1395,2.925,6.12,1111122 
DISL,ioos:station:DISL:CATA:1,2009-11-04T06:00:00Z,30.3085,-88.1395,2.895,5.86,1111122 
DISL,ioos:station:DISL:CATA:1,2009-11-04T06:30:00Z,30.3085,-88.1395,2.865,5.7,1111122 
DISL,ioos:station:DISL:CATA:1,2009-11-04T07:00:00Z,30.3085,-88.1395,2.838,5.54,1111122 
DISL,ioos:station:DISL:CATA:1,2009-11-04T07:30:00Z,30.3085,-88.1395,2.815,7.68,1111122 
DISL,ioos:station:DISL:CATA:1,2009-11-04T08:00:00Z,30.3085,-88.1395,2.774,8.92,1111122 
DISL,ioos:station:DISL:CATA:1,2009-11-04T08:30:00Z,30.3085,-88.1395,2.711,8.86,1111122 
DISL,ioos:station:DISL:CATA:1,2009-11-04T09:00:00Z,30.3085,-88.1395,2.672,8.83,1111122 
DISL,ioos:station:DISL:CATA:1,2009-11-04T09:30:00Z,30.3085,-88.1395,2.618,8.74,1111122 
DISL,ioos:station:DISL:CATA:1,2009-11-04T10:00:00Z,30.3085,-88.1395,2.57,8.77,1111122 
DISL,ioos:station:DISL:CATA:1,2009-11-04T10:30:00Z,30.3085,-88.1395,2.521,8.84,1111122 
DISL,ioos:station:DISL:CATA:1,2009-11-04T11:00:00Z,30.3085,-88.1395,2.492,8.77,1111122 
DISL,ioos:station:DISL:CATA:1,2009-11-04T11:30:00Z,30.3085,-88.1395,2.46,8.74,1111122 
DISL,ioos:station:DISL:CATA:1,2009-11-04T12:00:00Z,30.3085,-88.1395,2.435,8.66,1111122 
DISL,ioos:station:DISL:CATA:1,2009-11-04T12:30:00Z,30.3085,-88.1395,2.418,8.65,1111122 
DISL,ioos:station:DISL:CATA:1,2009-11-04T13:00:00Z,30.3085,-88.1395,2.403,8.67,1111122 
DISL,ioos:station:DISL:CATA:1,2009-11-04T13:30:00Z,30.3085,-88.1395,2.383,8.68,1111122 
DISL,ioos:station:DISL:CATA:1,2009-11-04T14:00:00Z,30.3085,-88.1395,2.379,8.71,1111122 
DISL,ioos:station:DISL:CATA:1,2009-11-04T14:30:00Z,30.3085,-88.1395,2.379,8.75,1111122 
DISL,ioos:station:DISL:CATA:1,2009-11-04T15:00:00Z,30.3085,-88.1395,2.367,8.79,1111122 
DISL,ioos:station:DISL:CATA:1,2009-11-04T15:30:00Z,30.3085,-88.1395,2.371,8.84,1111122 
DISL,ioos:station:DISL:CATA:1,2009-11-04T16:00:00Z,30.3085,-88.1395,2.395,8.94,1111122 
DISL,ioos:station:DISL:CATA:1,2009-11-04T16:30:00Z,30.3085,-88.1395,2.414,8.97,1111122 
DISL,ioos:station:DISL:CATA:1,2009-11-04T17:00:00Z,30.3085,-88.1395,2.427,8.95,1111122 
DISL,ioos:station:DISL:CATA:1,2009-11-04T17:30:00Z,30.3085,-88.1395,2.456,8.76,1111122 
DISL,ioos:station:DISL:CATA:1,2009-11-04T18:00:00Z,30.3085,-88.1395,2.477,9.16,1111122 
DISL,ioos:station:DISL:CATA:1,2009-11-04T18:30:00Z,30.3085,-88.1395,2.489,9.37,1111122 
DISL,ioos:station:DISL:CATA:1,2009-11-04T19:00:00Z,30.3085,-88.1395,2.51,10.13,1111122 
DISL,ioos:station:DISL:CATA:1,2009-11-04T19:30:00Z,30.3085,-88.1395,2.541,10.25,1111122 
DISL,ioos:station:DISL:CATA:1,2009-11-04T20:00:00Z,30.3085,-88.1395,2.564,10.43,1111122 
DISL,ioos:station:DISL:CATA:1,2009-11-04T20:30:00Z,30.3085,-88.1395,2.589,10.54,1111122 
DISL,ioos:station:DISL:CATA:1,2009-11-04T21:00:00Z,30.3085,-88.1395,2.612,10.31,1111122 
DISL,ioos:station:DISL:CATA:1,2009-11-04T21:30:00Z,30.3085,-88.1395,2.649,10.26,1111122 
DISL,ioos:station:DISL:CATA:1,2009-11-04T22:00:00Z,30.3085,-88.1395,2.689,10.24,1111122 
DISL,ioos:station:DISL:CATA:1,2009-11-04T22:30:00Z,30.3085,-88.1395,2.717,10.57,1111122 
DISL,ioos:station:DISL:CATA:1,2009-11-04T23:00:00Z,30.3085,-88.1395,2.762,10.55,1111122 
DISL,ioos:station:DISL:CATA:1,2009-11-04T23:30:00Z,30.3085,-88.1395,2.803,10.51,1111122 
DISL,ioos:station:DISL:CATA:1,2009-11-05T00:00:00Z,30.3085,-88.1395,2.844,9.76,1111122 
DISL,ioos:station:DISL:CATA:1,2009-11-05T00:30:00Z,30.3085,-88.1395,2.884,9.41,1111122 
DISL,ioos:station:DISL:CATA:1,2009-11-05T01:00:00Z,30.3085,-88.1395,2.918,9.12,1111122 
DISL,ioos:station:DISL:CATA:1,2009-11-05T01:30:00Z,30.3085,-88.1395,2.962,8.83,1111122 
DISL,ioos:station:DISL:CATA:1,2009-11-05T02:00:00Z,30.3085,-88.1395,2.998,8.41,1111122 
DISL,ioos:station:DISL:CATA:1,2009-11-05T02:30:00Z,30.3085,-88.1395,3.017,8.13,1111122 
DISL,ioos:station:DISL:CATA:1,2009-11-05T03:00:00Z,30.3085,-88.1395,3.03,7.88,1111122 
DISL,ioos:station:DISL:CATA:1,2009-11-05T03:30:00Z,30.3085,-88.1395,3.036,7.72,1111122 
DISL,ioos:station:DISL:CATA:1,2009-11-05T04:00:00Z,30.3085,-88.1395,3.051,7.21,1111122 
DISL,ioos:station:DISL:CATA:1,2009-11-05T04:30:00Z,30.3085,-88.1395,3.047,6.55,1111122 
DISL,ioos:station:DISL:CATA:1,2009-11-05T05:00:00Z,30.3085,-88.1395,3.028,5.96,1111122 
DISL,ioos:station:DISL:CATA:1,2009-11-05T05:30:00Z,30.3085,-88.1395,3.024,5.51,1111122 
DISL,ioos:station:DISL:CATA:1,2009-11-05T06:00:00Z,30.3085,-88.1395,2.994,5.24,1111122 
DISL,ioos:station:DISL:CATA:1,2009-11-05T06:30:00Z,30.3085,-88.1395,2.977,5.17,1111122 
DISL,ioos:station:DISL:CATA:1,2009-11-05T07:00:00Z,30.3085,-88.1395,2.946,4.94,1111122 
DISL,ioos:station:DISL:CATA:1,2009-11-05T07:30:00Z,30.3085,-88.1395,2.913,4.63,1111122 
DISL,ioos:station:DISL:CATA:1,2009-11-05T08:00:00Z,30.3085,-88.1395,2.868,4.47,1111122 
DISL,ioos:station:DISL:CATA:1,2009-11-05T08:30:00Z,30.3085,-88.1395,2.838,7.85,1111122 
DISL,ioos:station:DISL:CATA:1,2009-11-05T09:00:00Z,30.3085,-88.1395,2.799,9.24,1111122 
DISL,ioos:station:DISL:CATA:1,2009-11-05T09:30:00Z,30.3085,-88.1395,2.747,9.04,1111122 
DISL,ioos:station:DISL:CATA:1,2009-11-05T10:00:00Z,30.3085,-88.1395,2.692,9.4,1111122 
DISL,ioos:station:DISL:CATA:1,2009-11-05T10:30:00Z,30.3085,-88.1395,2.639,9.48,1111122 
DISL,ioos:station:DISL:CATA:1,2009-11-05T11:00:00Z,30.3085,-88.1395,2.59,9.37,1111122 
DISL,ioos:station:DISL:CATA:1,2009-11-05T11:30:00Z,30.3085,-88.1395,2.553,9.28,1111122 
DISL,ioos:station:DISL:CATA:1,2009-11-05T12:00:00Z,30.3085,-88.1395,2.512,9.19,1111122 
DISL,ioos:station:DISL:CATA:1,2009-11-05T12:30:00Z,30.3085,-88.1395,2.481,9.19,1111122 
DISL,ioos:station:DISL:CATA:1,2009-11-05T13:00:00Z,30.3085,-88.1395,2.454,9.28,1111122 
DISL,ioos:station:DISL:CATA:1,2009-11-05T13:30:00Z,30.3085,-88.1395,2.428,9.23,1111122 
DISL,ioos:station:DISL:CATA:1,2009-11-05T14:00:00Z,30.3085,-88.1395,2.399,9.18,1111122 
DISL,ioos:station:DISL:CATA:1,2009-11-05T14:30:00Z,30.3085,-88.1395,2.372,9.15,1111122 
DISL,ioos:station:DISL:CATA:1,2009-11-05T15:00:00Z,30.3085,-88.1395,2.352,9.24,1111122 
DISL,ioos:station:DISL:CATA:1,2009-11-05T15:30:00Z,30.3085,-88.1395,2.333,9.29,1111122 
DISL,ioos:station:DISL:CATA:1,2009-11-05T16:00:00Z,30.3085,-88.1395,2.336,9.39,1111122 
DISL,ioos:station:DISL:CATA:1,2009-11-05T16:30:00Z,30.3085,-88.1395,2.343,9.46,1111122 
DISL,ioos:station:DISL:CATA:1,2009-11-05T17:00:00Z,30.3085,-88.1395,2.351,9.56,1111122 
DISL,ioos:station:DISL:CATA:1,2009-11-05T17:30:00Z,30.3085,-88.1395,2.355,9.66,1111122 
DISL,ioos:station:DISL:CATA:1,2009-11-05T18:00:00Z,30.3085,-88.1395,2.369,9.69,1111122 
DISL,ioos:station:DISL:CATA:1,2009-11-05T18:30:00Z,30.3085,-88.1395,2.384,9.63,1111122 
DISL,ioos:station:DISL:CATA:1,2009-11-05T19:00:00Z,30.3085,-88.1395,2.421,9.65,1111122 
DISL,ioos:station:DISL:CATA:1,2009-11-05T19:30:00Z,30.3085,-88.1395,2.458,9.36,1111122 
DISL,ioos:station:DISL:CATA:1,2009-11-05T20:00:00Z,30.3085,-88.1395,2.49,9.97,1111122 
DISL,ioos:station:DISL:CATA:1,2009-11-05T20:30:00Z,30.3085,-88.1395,2.507,10.69,1111122 
DISL,ioos:station:DISL:CATA:1,2009-11-05T21:00:00Z,30.3085,-88.1395,2.529,10.65,1111122 
DISL,ioos:station:DISL:CATA:1,2009-11-05T21:30:00Z,30.3085,-88.1395,2.555,10.38,1111122 
DISL,ioos:station:DISL:CATA:1,2009-11-05T22:00:00Z,30.3085,-88.1395,2.594,10.36,1111122 
DISL,ioos:station:DISL:CATA:1,2009-11-05T22:30:00Z,30.3085,-88.1395,2.636,10.22,1111122 
DISL,ioos:station:DISL:CATA:1,2009-11-05T23:00:00Z,30.3085,-88.1395,2.678,10.13,1111122 
DISL,ioos:station:DISL:CATA:1,2009-11-05T23:30:00Z,30.3085,-88.1395,2.722,10.18,1111122 
DISL,ioos:station:DISL:CATA:1,2009-11-06T00:00:00Z,30.3085,-88.1395,2.755,10.05,1111122 
DISL,ioos:station:DISL:CATA:1,2009-11-06T00:30:00Z,30.3085,-88.1395,2.782,9.91,1111122 
DISL,ioos:station:DISL:CATA:1,2009-11-06T01:00:00Z,30.3085,-88.1395,2.824,9.71,1111122 
DISL,ioos:station:DISL:CATA:1,2009-11-06T01:30:00Z,30.3085,-88.1395,2.857,9.52,1111122 
DISL,ioos:station:DISL:CATA:1,2009-11-06T02:00:00Z,30.3085,-88.1395,2.896,8.58,1111122 
DISL,ioos:station:DISL:CATA:1,2009-11-06T02:30:00Z,30.3085,-88.1395,2.911,7.37,1111122 
DISL,ioos:station:DISL:CATA:1,2009-11-06T03:00:00Z,30.3085,-88.1395,2.939,6.96,1111122 
DISL,ioos:station:DISL:CATA:1,2009-11-06T03:30:00Z,30.3085,-88.1395,2.969,6.54,1111122 
DISL,ioos:station:DISL:CATA:1,2009-11-06T04:00:00Z,30.3085,-88.1395,2.969,6.02,1111122 
DISL,ioos:station:DISL:CATA:1,2009-11-06T04:30:00Z,30.3085,-88.1395,2.984,5.83,1111122 
DISL,ioos:station:DISL:CATA:1,2009-11-06T05:00:00Z,30.3085,-88.1395,2.987,5.67,1111122 
DISL,ioos:station:DISL:CATA:1,2009-11-06T05:30:00Z,30.3085,-88.1395,2.992,5.77,1111122 
DISL,ioos:station:DISL:CATA:1,2009-11-06T06:00:00Z,30.3085,-88.1395,2.98,5.8,1111122 
DISL,ioos:station:DISL:CATA:1,2009-11-06T06:30:00Z,30.3085,-88.1395,2.979,5.79,1111122 
DISL,ioos:station:DISL:CATA:1,2009-11-06T07:00:00Z,30.3085,-88.1395,2.953,5.7,1111122 
DISL,ioos:station:DISL:CATA:1,2009-11-06T07:30:00Z,30.3085,-88.1395,2.939,5.19,1111122 
DISL,ioos:station:DISL:CATA:1,2009-11-06T08:00:00Z,30.3085,-88.1395,2.904,5.16,1111122 
DISL,ioos:station:DISL:CATA:1,2009-11-06T08:30:00Z,30.3085,-88.1395,2.86,5.09,1111122 
DISL,ioos:station:DISL:CATA:1,2009-11-06T09:00:00Z,30.3085,-88.1395,2.83,6.35,1111122 
DISL,ioos:station:DISL:CATA:1,2009-11-06T09:30:00Z,30.3085,-88.1395,2.794,8.45,1111122 
DISL,ioos:station:DISL:CATA:1,2009-11-06T10:00:00Z,30.3085,-88.1395,2.744,8.63,1111122 
DISL,ioos:station:DISL:CATA:1,2009-11-06T10:30:00Z,30.3085,-88.1395,2.684,8.56,1111122 
DISL,ioos:station:DISL:CATA:1,2009-11-06T11:00:00Z,30.3085,-88.1395,2.631,8.88,1111122 
DISL,ioos:station:DISL:CATA:1,2009-11-06T11:30:00Z,30.3085,-88.1395,2.586,8.92,1111122 
DISL,ioos:station:DISL:CATA:1,2009-11-06T12:00:00Z,30.3085,-88.1395,2.543,8.83,1111122 
DISL,ioos:station:DISL:CATA:1,2009-11-06T12:30:00Z,30.3085,-88.1395,2.499,8.72,1111122 
DISL,ioos:station:DISL:CATA:1,2009-11-06T13:00:00Z,30.3085,-88.1395,2.465,8.72,1111122 
DISL,ioos:station:DISL:CATA:1,2009-11-06T13:30:00Z,30.3085,-88.1395,2.433,8.71,1111122 
DISL,ioos:station:DISL:CATA:1,2009-11-06T14:00:00Z,30.3085,-88.1395,2.401,8.66,1111122 
DISL,ioos:station:DISL:CATA:1,2009-11-06T14:30:00Z,30.3085,-88.1395,2.372,8.69,1111122 
DISL,ioos:station:DISL:CATA:1,2009-11-06T15:00:00Z,30.3085,-88.1395,2.346,8.68,1111122 